Time,TemperatureF,DewpointF,PressureIn,WindDirection,WindDirectionDegrees,WindSpeedMPH,WindSpeedGustMPH,Humidity,HourlyPrecipIn,Conditions,Clouds,dailyrainin,SoftwareType,DateUTC
2014-02-15 00:00:00,26.8,20.9,29.12,SW,231,3.1,3.1,78,0.00,,---,0.00,VWS V13.01,2014-02-15 05:00:00,
2014-02-15 00:01:00,26.8,20.9,29.12,SW,231,2.7,3.1,78,0.00,,---,0.00,VWS V13.01,2014-02-15 05:01:00,
2014-02-15 00:06:00,27.0,21.0,29.12,SW,232,2.7,2.7,78,0.00,,---,0.00,VWS V13.01,2014-02-15 05:06:00,
2014-02-15 00:11:00,26.8,20.5,29.12,WSW,248,2.7,3.6,77,0.00,,---,0.00,VWS V13.01,2014-02-15 05:11:00,
2014-02-15 00:16:00,26.8,20.5,29.15,SW,235,2.7,2.7,77,0.00,,---,0.00,VWS V13.01,2014-02-15 05:16:00,
2014-02-15 00:20:00,26.8,20.5,29.15,WSW,239,0.0,2.2,77,0.00,,---,0.00,VWS V13.01,2014-02-15 05:20:00,
2014-02-15 00:25:00,26.8,20.5,29.15,WSW,239,0.0,0.0,77,0.00,,---,0.00,VWS V13.01,2014-02-15 05:25:00,
2014-02-15 00:30:00,26.8,20.5,29.15,WSW,239,3.1,3.1,77,0.00,,---,0.00,VWS V13.01,2014-02-15 05:30:00,
2014-02-15 00:35:00,26.8,20.5,29.15,SW,232,3.6,4.0,77,0.00,,---,0.00,VWS V13.01,2014-02-15 05:35:00,
2014-02-15 00:40:00,26.6,20.4,29.15,WSW,241,2.7,3.1,77,0.00,,---,0.00,VWS V13.01,2014-02-15 05:40:00,
2014-02-15 00:45:00,26.6,20.4,29.15,WSW,238,0.0,0.0,77,0.00,,---,0.00,VWS V13.01,2014-02-15 05:45:00,
2014-02-15 00:50:00,26.6,20.4,29.15,SW,235,3.1,3.1,77,0.00,,---,0.00,VWS V13.01,2014-02-15 05:50:00,
2014-02-15 00:55:00,26.6,20.4,29.15,SW,232,2.2,3.6,77,0.00,,---,0.00,VWS V13.01,2014-02-15 05:55:00,
2014-02-15 01:00:00,26.4,20.2,29.15,SW,214,2.2,4.0,77,0.00,,---,0.00,VWS V13.01,2014-02-15 06:00:00,
2014-02-15 01:05:00,26.6,20.4,29.15,SW,232,3.1,3.6,77,0.00,,---,0.00,VWS V13.01,2014-02-15 06:05:00,
2014-02-15 01:10:00,26.6,20.4,29.15,West,263,0.0,3.1,77,0.00,,---,0.00,VWS V13.01,2014-02-15 06:10:00,
2014-02-15 01:15:00,26.6,20.4,29.15,WSW,240,0.0,0.0,77,0.00,,---,0.00,VWS V13.01,2014-02-15 06:15:00,
2014-02-15 01:20:00,26.8,20.5,29.15,SW,226,2.7,2.7,77,0.00,,---,0.00,VWS V13.01,2014-02-15 06:20:00,
2014-02-15 01:25:00,26.6,20.4,29.15,SSW,210,3.1,3.1,77,0.00,,---,0.00,VWS V13.01,2014-02-15 06:25:00,
2014-02-15 01:30:00,26.4,20.2,29.12,SW,216,3.1,4.0,77,0.00,,---,0.00,VWS V13.01,2014-02-15 06:30:00,
2014-02-15 01:35:00,26.4,20.2,29.12,SW,233,3.1,3.1,77,0.00,,---,0.00,VWS V13.01,2014-02-15 06:35:00,
2014-02-15 01:40:00,26.4,20.2,29.12,SW,222,2.7,2.7,77,0.00,,---,0.00,VWS V13.01,2014-02-15 06:40:00,
2014-02-15 01:45:00,26.4,20.2,29.15,WSW,237,2.2,2.2,77,0.00,,---,0.00,VWS V13.01,2014-02-15 06:45:00,
2014-02-15 01:50:00,26.6,20.4,29.15,SW,217,3.6,3.6,77,0.00,,---,0.00,VWS V13.01,2014-02-15 06:50:00,
2014-02-15 01:55:00,26.6,20.4,29.15,SW,227,2.2,3.6,77,0.00,,---,0.00,VWS V13.01,2014-02-15 06:55:00,
2014-02-15 02:00:00,26.4,20.2,29.15,SSW,195,3.1,3.1,77,0.00,,---,0.00,VWS V13.01,2014-02-15 07:00:00,
2014-02-15 02:05:00,26.4,20.2,29.15,WSW,244,2.7,4.0,77,0.00,,---,0.00,VWS V13.01,2014-02-15 07:05:00,
2014-02-15 02:10:00,26.2,20.0,29.15,SW,226,2.7,4.0,77,0.00,,---,0.00,VWS V13.01,2014-02-15 07:10:00,
2014-02-15 02:15:00,26.2,20.0,29.12,SW,225,2.7,3.1,77,0.00,,---,0.00,VWS V13.01,2014-02-15 07:15:00,
2014-02-15 02:20:00,26.4,20.2,29.12,WSW,241,0.0,2.7,77,0.00,,---,0.00,VWS V13.01,2014-02-15 07:20:00,
2014-02-15 02:25:00,26.6,20.4,29.12,WSW,241,0.0,0.0,77,0.00,,---,0.00,VWS V13.01,2014-02-15 07:25:00,
2014-02-15 02:30:00,26.6,20.4,29.15,WSW,241,2.7,3.6,77,0.00,,---,0.00,VWS V13.01,2014-02-15 07:30:00,
2014-02-15 02:35:00,26.6,20.4,29.15,WSW,241,2.2,3.1,77,0.00,,---,0.00,VWS V13.01,2014-02-15 07:35:00,
2014-02-15 02:40:00,26.4,20.2,29.15,SSW,202,4.0,4.0,77,0.00,,---,0.00,VWS V13.01,2014-02-15 07:40:00,
2014-02-15 02:45:00,26.4,20.2,29.15,SSW,211,0.0,2.2,77,0.00,,---,0.00,VWS V13.01,2014-02-15 07:45:00,
2014-02-15 02:50:00,26.4,20.2,29.15,SSW,211,2.2,3.1,77,0.00,,---,0.00,VWS V13.01,2014-02-15 07:50:00,
2014-02-15 02:55:00,26.4,20.2,29.15,SW,217,3.6,3.6,77,0.00,,---,0.00,VWS V13.01,2014-02-15 07:55:00,
2014-02-15 03:00:00,26.4,20.2,29.15,SSW,205,2.2,2.7,77,0.00,,---,0.00,VWS V13.01,2014-02-15 08:00:00,
2014-02-15 03:05:00,26.6,20.4,29.15,SSW,205,3.1,3.1,77,0.00,,---,0.00,VWS V13.01,2014-02-15 08:05:00,
2014-02-15 03:10:00,26.4,20.2,29.15,SSW,205,0.0,2.7,77,0.00,,---,0.00,VWS V13.01,2014-02-15 08:10:00,
2014-02-15 03:15:00,26.4,20.2,29.15,SSW,205,2.7,2.7,77,0.00,,---,0.00,VWS V13.01,2014-02-15 08:15:00,
2014-02-15 03:20:00,26.4,20.2,29.15,SSW,205,0.0,0.0,77,0.00,,---,0.00,VWS V13.01,2014-02-15 08:20:00,
2014-02-15 03:25:00,26.4,20.2,29.15,SSW,205,0.0,0.0,77,0.00,,---,0.00,VWS V13.01,2014-02-15 08:25:00,
2014-02-15 03:30:00,26.6,20.4,29.15,SSW,205,0.0,0.0,77,0.00,,---,0.00,VWS V13.01,2014-02-15 08:30:00,
2014-02-15 03:35:00,26.6,20.4,29.15,SSW,205,2.2,2.2,77,0.00,,---,0.00,VWS V13.01,2014-02-15 08:35:00,
2014-02-15 03:40:00,26.2,19.7,29.15,WSW,244,0.0,3.6,76,0.00,,---,0.00,VWS V13.01,2014-02-15 08:40:00,
2014-02-15 03:44:00,26.2,19.7,29.15,SW,218,3.1,3.6,76,0.00,,---,0.00,VWS V13.01,2014-02-15 08:44:00,
2014-02-15 03:49:00,26.1,19.5,29.15,SW,214,0.0,0.0,76,0.00,,---,0.00,VWS V13.01,2014-02-15 08:49:00,
2014-02-15 03:54:00,26.2,19.7,29.15,SW,214,0.0,0.0,76,0.00,,---,0.00,VWS V13.01,2014-02-15 08:54:00,
2014-02-15 03:59:00,26.2,19.7,29.15,SW,214,0.0,0.0,76,0.00,,---,0.00,VWS V13.01,2014-02-15 08:59:00,
2014-02-15 04:04:00,26.4,19.9,29.15,SW,214,0.0,0.0,76,0.00,,---,0.00,VWS V13.01,2014-02-15 09:04:00,
2014-02-15 04:09:00,26.2,19.7,29.15,WNW,292,0.0,0.0,76,0.00,,---,0.00,VWS V13.01,2014-02-15 09:09:00,
2014-02-15 04:14:00,26.1,19.5,29.15,WNW,292,0.0,0.0,76,0.00,,---,0.00,VWS V13.01,2014-02-15 09:14:00,
2014-02-15 04:19:00,25.9,19.4,29.15,West,264,0.0,0.0,76,0.00,,---,0.00,VWS V13.01,2014-02-15 09:19:00,
2014-02-15 04:24:00,25.9,19.4,29.15,WNW,299,2.2,2.2,76,0.00,,---,0.00,VWS V13.01,2014-02-15 09:24:00,
2014-02-15 04:29:00,25.7,19.2,29.15,WNW,299,2.7,2.7,76,0.00,,---,0.00,VWS V13.01,2014-02-15 09:29:00,
2014-02-15 04:34:00,25.5,19.3,29.15,WNW,299,2.7,3.1,77,0.00,,---,0.00,VWS V13.01,2014-02-15 09:34:00,
2014-02-15 04:39:00,25.3,19.1,29.15,WNW,300,0.0,0.0,77,0.00,,---,0.00,VWS V13.01,2014-02-15 09:39:00,
2014-02-15 04:44:00,25.3,19.1,29.15,WNW,299,2.7,2.7,77,0.00,,---,0.00,VWS V13.01,2014-02-15 09:44:00,
2014-02-15 04:49:00,25.3,19.5,29.15,WNW,299,0.0,0.0,78,0.00,,---,0.00,VWS V13.01,2014-02-15 09:49:00,
2014-02-15 04:54:00,25.3,19.5,29.15,WNW,299,3.6,3.6,78,0.00,,---,0.00,VWS V13.01,2014-02-15 09:54:00,
2014-02-15 04:59:00,25.2,19.3,29.18,WNW,299,3.1,3.1,78,0.00,,---,0.00,VWS V13.01,2014-02-15 09:59:00,
2014-02-15 05:04:00,25.2,19.6,29.18,WNW,299,2.7,3.1,79,0.00,,---,0.00,VWS V13.01,2014-02-15 10:04:00,
2014-02-15 05:09:00,25.0,19.4,29.18,WNW,299,2.2,2.7,79,0.00,,---,0.00,VWS V13.01,2014-02-15 10:09:00,
2014-02-15 05:14:00,25.0,19.7,29.18,WNW,299,2.7,2.7,80,0.00,,---,0.00,VWS V13.01,2014-02-15 10:14:00,
2014-02-15 05:19:00,25.0,19.7,29.18,WNW,300,0.0,0.0,80,0.00,,---,0.00,VWS V13.01,2014-02-15 10:19:00,
2014-02-15 05:24:00,25.0,19.7,29.18,WNW,292,2.2,2.2,80,0.00,,---,0.00,VWS V13.01,2014-02-15 10:24:00,
2014-02-15 05:25:00,25.0,19.7,29.18,WNW,298,3.1,3.1,80,0.00,,---,0.00,VWS V13.01,2014-02-15 10:25:00,
2014-02-15 05:28:00,25.0,19.7,29.18,WNW,294,2.7,4.9,80,0.00,,---,0.00,VWS V13.01,2014-02-15 10:28:00,
2014-02-15 05:29:00,24.8,19.8,29.18,WNW,295,2.2,4.0,81,0.00,,---,0.00,VWS V13.01,2014-02-15 10:29:00,
2014-02-15 05:31:00,24.8,19.8,29.18,WNW,295,2.7,3.1,81,0.00,,---,0.00,VWS V13.01,2014-02-15 10:31:00,
2014-02-15 05:34:00,24.8,19.8,29.18,WNW,295,3.6,3.6,81,0.00,,---,0.00,VWS V13.01,2014-02-15 10:34:00,
2014-02-15 05:37:00,24.8,19.8,29.18,WNW,295,2.7,2.7,81,0.00,,---,0.00,VWS V13.01,2014-02-15 10:37:00,
2014-02-15 05:39:00,24.8,19.8,29.18,WNW,295,0.0,3.1,81,0.00,,---,0.00,VWS V13.01,2014-02-15 10:39:00,
2014-02-15 05:40:00,24.8,19.8,29.18,WNW,295,2.7,2.7,81,0.00,,---,0.00,VWS V13.01,2014-02-15 10:40:00,
2014-02-15 05:42:00,24.8,19.8,29.18,WNW,295,2.7,3.1,81,0.00,,---,0.00,VWS V13.01,2014-02-15 10:42:00,
2014-02-15 05:43:00,24.8,19.8,29.18,WNW,295,2.2,4.0,81,0.00,,---,0.00,VWS V13.01,2014-02-15 10:43:00,
2014-02-15 05:47:00,24.8,19.8,29.15,WNW,295,2.2,2.2,81,0.00,,---,0.00,VWS V13.01,2014-02-15 10:47:00,
2014-02-15 05:50:00,24.8,19.8,29.15,WNW,295,2.2,3.1,81,0.00,,---,0.00,VWS V13.01,2014-02-15 10:50:00,
2014-02-15 05:52:00,24.8,19.8,29.15,WNW,295,2.7,2.7,81,0.00,,---,0.00,VWS V13.01,2014-02-15 10:52:00,
2014-02-15 05:55:00,24.8,19.8,29.15,WNW,295,0.0,2.2,81,0.00,,---,0.00,VWS V13.01,2014-02-15 10:55:00,
2014-02-15 05:56:00,24.8,19.8,29.15,WNW,295,2.2,2.2,81,0.00,,---,0.00,VWS V13.01,2014-02-15 10:56:00,
2014-02-15 05:57:00,24.8,19.8,29.15,WNW,295,2.7,2.7,81,0.00,,---,0.00,VWS V13.01,2014-02-15 10:57:00,
2014-02-15 05:59:00,24.8,19.8,29.18,WNW,295,2.7,3.1,81,0.00,,---,0.00,VWS V13.01,2014-02-15 10:59:00,
2014-02-15 06:01:00,24.8,19.8,29.18,WNW,300,2.2,4.5,81,0.00,,---,0.00,VWS V13.01,2014-02-15 11:01:00,
2014-02-15 06:06:00,24.8,19.8,29.18,WNW,300,2.7,3.1,81,0.00,,---,0.00,VWS V13.01,2014-02-15 11:06:00,
2014-02-15 06:07:00,24.8,19.8,29.18,WNW,300,2.2,2.2,81,0.00,,---,0.00,VWS V13.01,2014-02-15 11:07:00,
2014-02-15 06:09:00,24.8,19.8,29.18,WNW,300,2.2,3.1,81,0.00,,---,0.00,VWS V13.01,2014-02-15 11:09:00,
2014-02-15 06:14:00,24.8,19.8,29.18,WNW,300,3.1,3.1,81,0.00,,---,0.00,VWS V13.01,2014-02-15 11:14:00,
2014-02-15 06:15:00,24.8,19.8,29.18,WNW,300,2.7,4.0,81,0.00,,---,0.00,VWS V13.01,2014-02-15 11:15:00,
2014-02-15 06:19:00,24.6,19.3,29.18,WNW,300,4.5,4.5,80,0.00,,---,0.00,VWS V13.01,2014-02-15 11:19:00,
2014-02-15 06:20:00,24.4,19.2,29.18,WNW,300,2.2,3.6,80,0.00,,---,0.00,VWS V13.01,2014-02-15 11:20:00,
2014-02-15 06:24:00,24.4,19.2,29.18,WNW,300,2.2,4.0,80,0.00,,---,0.00,VWS V13.01,2014-02-15 11:24:00,
2014-02-15 06:25:00,24.6,19.3,29.18,WNW,300,2.7,2.7,80,0.00,,---,0.00,VWS V13.01,2014-02-15 11:25:00,
2014-02-15 06:28:00,24.6,19.3,29.18,WNW,300,3.1,3.6,80,0.00,,---,0.00,VWS V13.01,2014-02-15 11:28:00,
2014-02-15 06:31:00,24.6,19.3,29.18,WNW,301,3.6,3.6,80,0.00,,---,0.00,VWS V13.01,2014-02-15 11:31:00,
2014-02-15 06:33:00,24.6,19.3,29.18,WNW,301,0.0,2.2,80,0.00,,---,0.00,VWS V13.01,2014-02-15 11:33:00,
2014-02-15 06:38:00,24.6,19.0,29.18,WNW,298,3.6,3.6,79,0.00,,---,0.00,VWS V13.01,2014-02-15 11:38:00,
2014-02-15 06:42:00,24.4,18.6,29.18,NW,311,3.6,4.0,78,0.00,,---,0.00,VWS V13.01,2014-02-15 11:42:00,
2014-02-15 06:45:00,24.4,18.3,29.18,NW,313,4.0,4.0,77,0.00,,---,0.00,VWS V13.01,2014-02-15 11:45:00,
2014-02-15 06:46:00,24.4,18.3,29.18,NW,311,2.7,4.0,77,0.00,,---,0.00,VWS V13.01,2014-02-15 11:46:00,
2014-02-15 06:47:00,24.4,18.3,29.18,NNW,341,3.1,3.1,77,0.00,,---,0.00,VWS V13.01,2014-02-15 11:47:00,
2014-02-15 06:49:00,24.4,18.0,29.18,NW,314,3.1,3.6,76,0.00,,---,0.00,VWS V13.01,2014-02-15 11:49:00,
2014-02-15 06:54:00,24.4,17.4,29.18,NNW,332,5.4,6.3,74,0.00,,---,0.00,VWS V13.01,2014-02-15 11:54:00,
2014-02-15 06:59:00,24.4,15.7,29.21,NNW,327,4.0,4.0,69,0.00,,---,0.00,VWS V13.01,2014-02-15 11:59:00,
2014-02-15 07:03:00,24.3,14.6,29.21,NW,307,3.1,3.6,66,0.00,,---,0.00,VWS V13.01,2014-02-15 12:03:00,
2014-02-15 07:06:00,24.3,14.2,29.21,WNW,298,4.9,5.4,65,0.00,,---,0.00,VWS V13.01,2014-02-15 12:06:00,
2014-02-15 07:07:00,24.3,14.2,29.21,NW,325,4.0,4.0,65,0.00,,---,0.00,VWS V13.01,2014-02-15 12:07:00,
2014-02-15 07:09:00,24.1,13.3,29.21,NW,307,5.4,5.4,63,0.00,,---,0.00,VWS V13.01,2014-02-15 12:09:00,
2014-02-15 07:11:00,24.1,13.3,29.21,NW,322,5.8,5.8,63,0.00,,---,0.00,VWS V13.01,2014-02-15 12:11:00,
2014-02-15 07:12:00,24.1,13.0,29.21,NNW,331,3.6,8.3,62,0.00,,---,0.00,VWS V13.01,2014-02-15 12:12:00,
2014-02-15 07:14:00,24.1,13.0,29.21,NW,305,4.0,4.0,62,0.00,,---,0.00,VWS V13.01,2014-02-15 12:14:00,
2014-02-15 07:16:00,24.1,13.0,29.21,WNW,300,4.0,4.0,62,0.00,,---,0.00,VWS V13.01,2014-02-15 12:16:00,
2014-02-15 07:21:00,24.1,12.6,29.21,WNW,302,4.0,4.0,61,0.00,,---,0.00,VWS V13.01,2014-02-15 12:21:00,
2014-02-15 07:22:00,24.1,12.6,29.21,NW,319,4.0,4.0,61,0.00,,---,0.00,VWS V13.01,2014-02-15 12:22:00,
2014-02-15 07:23:00,24.1,12.6,29.21,NW,322,3.6,6.3,61,0.00,,---,0.00,VWS V13.01,2014-02-15 12:23:00,
2014-02-15 07:28:00,24.1,12.6,29.21,NW,317,2.7,5.4,61,0.00,,---,0.00,VWS V13.01,2014-02-15 12:28:00,
2014-02-15 07:30:00,24.1,12.2,29.21,WNW,300,3.1,4.9,60,0.00,,---,0.00,VWS V13.01,2014-02-15 12:30:00,
2014-02-15 07:33:00,24.1,12.2,29.21,WNW,290,4.5,4.5,60,0.00,,---,0.00,VWS V13.01,2014-02-15 12:33:00,
2014-02-15 07:37:00,24.1,12.2,29.21,WNW,293,2.7,4.0,60,0.00,,---,0.00,VWS V13.01,2014-02-15 12:37:00,
2014-02-15 07:39:00,24.1,12.2,29.21,NW,312,3.6,5.4,60,0.00,,---,0.00,VWS V13.01,2014-02-15 12:39:00,
2014-02-15 07:40:00,24.1,12.2,29.21,WNW,298,4.0,4.0,60,0.00,,---,0.00,VWS V13.01,2014-02-15 12:40:00,
2014-02-15 07:44:00,24.3,12.0,29.21,WNW,300,3.1,3.1,59,0.00,,---,0.00,VWS V13.01,2014-02-15 12:44:00,
2014-02-15 07:45:00,24.3,12.0,29.21,WNW,300,3.1,4.0,59,0.00,,---,0.00,VWS V13.01,2014-02-15 12:45:00,
2014-02-15 07:47:00,24.3,12.4,29.21,WNW,300,3.6,3.6,60,0.00,,---,0.00,VWS V13.01,2014-02-15 12:47:00,
2014-02-15 07:49:00,24.3,12.0,29.21,WNW,293,3.1,4.9,59,0.00,,---,0.00,VWS V13.01,2014-02-15 12:49:00,
2014-02-15 07:51:00,24.3,12.0,29.21,WNW,299,3.6,4.0,59,0.00,,---,0.00,VWS V13.01,2014-02-15 12:51:00,
2014-02-15 07:55:00,24.4,11.8,29.21,WNW,297,4.5,4.9,58,0.00,,---,0.00,VWS V13.01,2014-02-15 12:55:00,
2014-02-15 08:00:00,24.4,11.4,29.23,WNW,297,4.9,4.9,57,0.00,,---,0.00,VWS V13.01,2014-02-15 13:00:00,
2014-02-15 08:02:00,24.4,11.4,29.23,WNW,303,3.6,4.0,57,0.00,,---,0.00,VWS V13.01,2014-02-15 13:02:00,
2014-02-15 08:03:00,24.4,11.4,29.23,WNW,297,5.4,5.4,57,0.00,,---,0.00,VWS V13.01,2014-02-15 13:03:00,
2014-02-15 08:05:00,24.6,11.2,29.23,NW,308,3.6,4.9,56,0.00,,---,0.00,VWS V13.01,2014-02-15 13:05:00,
2014-02-15 08:07:00,24.6,11.2,29.23,WNW,299,5.8,5.8,56,0.00,,---,0.00,VWS V13.01,2014-02-15 13:07:00,
2014-02-15 08:08:00,24.4,11.0,29.23,WNW,297,6.3,6.3,56,0.00,,---,0.00,VWS V13.01,2014-02-15 13:08:00,
2014-02-15 08:10:00,24.6,10.8,29.23,WNW,298,5.4,5.4,55,0.00,,---,0.00,VWS V13.01,2014-02-15 13:10:00,
2014-02-15 08:11:00,24.6,10.8,29.23,NNW,333,8.3,8.3,55,0.00,,---,0.00,VWS V13.01,2014-02-15 13:11:00,
2014-02-15 08:16:00,24.8,10.5,29.23,North,357,3.6,3.6,54,0.00,,---,0.00,VWS V13.01,2014-02-15 13:16:00,
2014-02-15 08:19:00,25.0,10.7,29.23,NW,312,3.1,4.9,54,0.00,,---,0.00,VWS V13.01,2014-02-15 13:19:00,
2014-02-15 08:21:00,25.2,10.4,29.23,North,1,3.1,5.4,53,0.00,,---,0.00,VWS V13.01,2014-02-15 13:21:00,
2014-02-15 08:22:00,25.2,10.4,29.23,WNW,297,3.6,6.3,53,0.00,,---,0.00,VWS V13.01,2014-02-15 13:22:00,
2014-02-15 08:27:00,24.8,10.5,29.23,WNW,289,3.1,4.0,54,0.00,,---,0.00,VWS V13.01,2014-02-15 13:27:00,
2014-02-15 08:28:00,24.8,10.5,29.23,West,280,8.7,8.7,54,0.00,,---,0.00,VWS V13.01,2014-02-15 13:28:00,
2014-02-15 08:29:00,24.8,10.5,29.23,WNW,298,5.4,8.7,54,0.00,,---,0.00,VWS V13.01,2014-02-15 13:29:00,
2014-02-15 08:30:00,24.6,10.4,29.23,NW,308,5.8,5.8,54,0.00,,---,0.00,VWS V13.01,2014-02-15 13:30:00,
2014-02-15 08:34:00,24.4,10.2,29.23,WNW,302,7.6,7.6,54,0.00,,---,0.00,VWS V13.01,2014-02-15 13:34:00,
2014-02-15 08:36:00,24.4,10.2,29.23,WNW,296,5.4,5.4,54,0.00,,---,0.00,VWS V13.01,2014-02-15 13:36:00,
2014-02-15 08:38:00,24.3,10.0,29.23,NW,310,4.0,6.3,54,0.00,,---,0.00,VWS V13.01,2014-02-15 13:38:00,
2014-02-15 08:39:00,24.3,10.0,29.23,WNW,291,8.7,8.7,54,0.00,,---,0.00,VWS V13.01,2014-02-15 13:39:00,
2014-02-15 08:41:00,23.9,9.7,29.23,NW,306,5.8,5.8,54,0.00,,---,0.00,VWS V13.01,2014-02-15 13:41:00,
2014-02-15 08:45:00,23.5,9.4,29.23,NW,309,8.1,8.1,54,0.00,,---,0.00,VWS V13.01,2014-02-15 13:45:00,
2014-02-15 08:47:00,23.5,9.4,29.23,WNW,299,5.8,8.3,54,0.00,,---,0.00,VWS V13.01,2014-02-15 13:47:00,
2014-02-15 08:48:00,23.4,9.2,29.23,NW,314,5.8,7.6,54,0.00,,---,0.00,VWS V13.01,2014-02-15 13:48:00,
2014-02-15 08:50:00,23.2,9.0,29.23,West,281,5.8,7.6,54,0.00,,---,0.00,VWS V13.01,2014-02-15 13:50:00,
2014-02-15 08:52:00,23.2,9.0,29.23,WNW,303,6.3,8.3,54,0.00,,---,0.00,VWS V13.01,2014-02-15 13:52:00,
2014-02-15 08:55:00,23.2,8.6,29.23,WNW,293,2.7,2.7,53,0.00,,---,0.00,VWS V13.01,2014-02-15 13:55:00,
2014-02-15 08:57:00,23.4,8.8,29.23,WNW,292,2.7,2.7,53,0.00,,---,0.00,VWS V13.01,2014-02-15 13:57:00,
2014-02-15 09:00:00,23.4,8.8,29.23,WNW,285,4.9,4.9,53,0.00,,---,0.00,VWS V13.01,2014-02-15 14:00:00,
2014-02-15 09:03:00,23.2,8.6,29.23,NNW,334,3.6,6.3,53,0.00,,---,0.00,VWS V13.01,2014-02-15 14:03:00,
2014-02-15 09:05:00,23.2,8.6,29.23,WNW,301,8.7,8.7,53,0.00,,---,0.00,VWS V13.01,2014-02-15 14:05:00,
2014-02-15 09:06:00,23.0,8.4,29.23,NW,308,5.8,8.7,53,0.00,,---,0.00,VWS V13.01,2014-02-15 14:06:00,
2014-02-15 09:08:00,23.0,8.4,29.23,West,279,5.4,6.3,53,0.00,,---,0.00,VWS V13.01,2014-02-15 14:08:00,
2014-02-15 09:13:00,22.8,8.3,29.23,WNW,284,4.0,8.1,53,0.00,,---,0.00,VWS V13.01,2014-02-15 14:13:00,
2014-02-15 09:15:00,22.6,8.1,29.26,WNW,296,7.6,8.3,53,0.00,,---,0.00,VWS V13.01,2014-02-15 14:15:00,
2014-02-15 09:16:00,22.6,8.1,29.26,WNW,299,6.3,8.3,53,0.00,,---,0.00,VWS V13.01,2014-02-15 14:16:00,
2014-02-15 09:18:00,22.5,7.9,29.26,WNW,293,6.7,8.7,53,0.00,,---,0.00,VWS V13.01,2014-02-15 14:18:00,
2014-02-15 09:22:00,22.6,8.1,29.26,NW,308,7.6,7.6,53,0.00,,---,0.00,VWS V13.01,2014-02-15 14:22:00,
2014-02-15 09:25:00,22.5,7.9,29.26,NW,311,7.6,8.1,53,0.00,,---,0.00,VWS V13.01,2014-02-15 14:25:00,
2014-02-15 09:28:00,21.9,7.4,29.26,West,281,6.3,7.6,53,0.00,,---,0.00,VWS V13.01,2014-02-15 14:28:00,
2014-02-15 09:33:00,21.6,7.5,29.26,NW,304,4.0,10.1,54,0.00,,---,0.00,VWS V13.01,2014-02-15 14:33:00,
2014-02-15 09:38:00,21.4,7.3,29.26,WNW,302,5.4,8.1,54,0.00,,---,0.00,VWS V13.01,2014-02-15 14:38:00,
2014-02-15 09:40:00,21.6,7.5,29.26,NW,306,5.8,5.8,54,0.00,,---,0.00,VWS V13.01,2014-02-15 14:40:00,
2014-02-15 09:43:00,21.7,8.1,29.26,WNW,296,5.4,6.3,55,0.00,,---,0.00,VWS V13.01,2014-02-15 14:43:00,
2014-02-15 09:46:00,21.9,7.8,29.26,WNW,293,5.4,8.1,54,0.00,,---,0.00,VWS V13.01,2014-02-15 14:46:00,
2014-02-15 09:49:00,22.1,8.0,29.26,WNW,296,8.3,8.3,54,0.00,,---,0.00,VWS V13.01,2014-02-15 14:49:00,
2014-02-15 09:51:00,22.1,7.6,29.26,WNW,301,8.3,10.1,53,0.00,,---,0.00,VWS V13.01,2014-02-15 14:51:00,
2014-02-15 09:56:00,21.9,7.4,29.26,WNW,298,3.1,7.6,53,0.00,,---,0.00,VWS V13.01,2014-02-15 14:56:00,
2014-02-15 09:58:00,21.9,7.4,29.26,WNW,289,5.8,8.1,53,0.00,,---,0.00,VWS V13.01,2014-02-15 14:58:00,
2014-02-15 09:59:00,21.9,7.4,29.26,WNW,303,7.2,11.0,53,0.00,,---,0.00,VWS V13.01,2014-02-15 14:59:00,
2014-02-15 10:01:00,21.9,7.4,29.26,NW,305,6.3,6.3,53,0.00,,---,0.00,VWS V13.01,2014-02-15 15:01:00,
2014-02-15 10:03:00,21.9,7.8,29.26,WNW,297,8.3,8.3,54,0.00,,---,0.00,VWS V13.01,2014-02-15 15:03:00,
2014-02-15 10:08:00,21.9,7.4,29.26,WNW,291,5.8,7.6,53,0.00,,---,0.00,VWS V13.01,2014-02-15 15:08:00,
2014-02-15 10:11:00,22.3,7.8,29.26,North,0,7.6,7.6,53,0.00,,---,0.00,VWS V13.01,2014-02-15 15:11:00,
2014-02-15 10:12:00,22.5,7.5,29.26,WNW,298,8.1,8.7,52,0.00,,---,0.00,VWS V13.01,2014-02-15 15:12:00,
2014-02-15 10:16:00,22.8,7.4,29.26,WNW,289,5.8,5.8,51,0.00,,---,0.00,VWS V13.01,2014-02-15 15:16:00,
2014-02-15 10:21:00,22.5,7.1,29.26,NW,322,5.8,8.3,51,0.00,,---,0.00,VWS V13.01,2014-02-15 15:21:00,
2014-02-15 10:23:00,22.6,7.2,29.26,NW,322,6.7,8.3,51,0.00,,---,0.00,VWS V13.01,2014-02-15 15:23:00,
2014-02-15 10:27:00,22.8,7.0,29.26,WNW,303,8.1,8.1,50,0.00,,---,0.00,VWS V13.01,2014-02-15 15:27:00,
2014-02-15 10:31:00,23.0,6.7,29.26,NW,305,5.8,5.8,49,0.00,,---,0.00,VWS V13.01,2014-02-15 15:31:00,
2014-02-15 10:32:00,23.2,6.9,29.26,WNW,298,4.0,5.8,49,0.00,,---,0.00,VWS V13.01,2014-02-15 15:32:00,
2014-02-15 10:34:00,23.5,7.2,29.26,West,279,3.1,4.0,49,0.00,,---,0.00,VWS V13.01,2014-02-15 15:34:00,
2014-02-15 10:35:00,23.7,7.4,29.26,West,274,3.1,4.0,49,0.00,,---,0.00,VWS V13.01,2014-02-15 15:35:00,
2014-02-15 10:36:00,23.9,7.1,29.26,West,273,4.9,4.9,48,0.00,,---,0.00,VWS V13.01,2014-02-15 15:36:00,
2014-02-15 10:39:00,24.1,6.8,29.26,WNW,290,5.4,9.2,47,0.00,,---,0.00,VWS V13.01,2014-02-15 15:39:00,
2014-02-15 10:43:00,23.9,6.6,29.26,WNW,295,5.4,7.6,47,0.00,,---,0.00,VWS V13.01,2014-02-15 15:43:00,
2014-02-15 10:44:00,23.7,6.4,29.29,WNW,297,8.7,8.7,47,0.00,,---,0.00,VWS V13.01,2014-02-15 15:44:00,
2014-02-15 10:46:00,23.5,6.3,29.29,West,275,5.8,5.8,47,0.00,,---,0.00,VWS V13.01,2014-02-15 15:46:00,
2014-02-15 10:48:00,23.5,6.8,29.29,West,265,6.3,6.3,48,0.00,,---,0.00,VWS V13.01,2014-02-15 15:48:00,
2014-02-15 10:52:00,23.5,6.3,29.29,WNW,288,5.4,8.1,47,0.00,,---,0.00,VWS V13.01,2014-02-15 15:52:00,
2014-02-15 10:53:00,23.7,6.4,29.29,WNW,300,3.1,3.6,47,0.00,,---,0.00,VWS V13.01,2014-02-15 15:53:00,
2014-02-15 10:55:00,24.3,7.4,29.29,West,267,2.7,4.0,48,0.00,,---,0.00,VWS V13.01,2014-02-15 15:55:00,
2014-02-15 10:57:00,24.6,6.8,29.29,WNW,301,8.3,8.3,46,0.00,,---,0.00,VWS V13.01,2014-02-15 15:57:00,
2014-02-15 10:59:00,24.6,6.8,29.29,WNW,297,5.4,5.4,46,0.00,,---,0.00,VWS V13.01,2014-02-15 15:59:00,
2014-02-15 11:00:00,24.8,7.0,29.29,WNW,298,3.1,5.4,46,0.00,,---,0.00,VWS V13.01,2014-02-15 16:00:00,
2014-02-15 11:05:00,25.5,7.2,29.29,WNW,285,3.1,4.9,45,0.00,,---,0.00,VWS V13.01,2014-02-15 16:05:00,
2014-02-15 11:06:00,25.5,7.2,29.29,NW,319,5.4,5.4,45,0.00,,---,0.00,VWS V13.01,2014-02-15 16:06:00,
2014-02-15 11:09:00,25.5,6.7,29.29,WNW,298,4.9,5.4,44,0.00,,---,0.00,VWS V13.01,2014-02-15 16:09:00,
2014-02-15 11:10:00,25.7,6.8,29.29,WSW,256,4.0,4.9,44,0.00,,---,0.00,VWS V13.01,2014-02-15 16:10:00,
2014-02-15 11:12:00,25.5,6.7,29.29,NW,307,5.4,5.8,44,0.00,,---,0.00,VWS V13.01,2014-02-15 16:12:00,
2014-02-15 11:15:00,25.3,6.5,29.29,WNW,297,3.1,4.9,44,0.00,,---,0.00,VWS V13.01,2014-02-15 16:15:00,
2014-02-15 11:19:00,25.2,6.3,29.29,WNW,299,4.0,4.9,44,0.00,,---,0.00,VWS V13.01,2014-02-15 16:19:00,
2014-02-15 11:20:00,25.2,6.3,29.29,West,267,7.2,7.2,44,0.00,,---,0.00,VWS V13.01,2014-02-15 16:20:00,
2014-02-15 11:22:00,25.2,6.3,29.29,West,271,5.8,8.3,44,0.00,,---,0.00,VWS V13.01,2014-02-15 16:22:00,
2014-02-15 11:25:00,25.2,6.3,29.29,WNW,299,6.3,6.3,44,0.00,,---,0.00,VWS V13.01,2014-02-15 16:25:00,
2014-02-15 11:27:00,25.2,6.3,29.29,WNW,290,5.8,6.3,44,0.00,,---,0.00,VWS V13.01,2014-02-15 16:27:00,
2014-02-15 11:29:00,25.2,6.8,29.29,West,280,6.3,6.7,45,0.00,,---,0.00,VWS V13.01,2014-02-15 16:29:00,
2014-02-15 11:30:00,25.2,6.8,29.29,West,269,4.9,6.7,45,0.00,,---,0.00,VWS V13.01,2014-02-15 16:30:00,
2014-02-15 11:33:00,25.5,6.7,29.29,NW,305,5.4,5.4,44,0.00,,---,0.00,VWS V13.01,2014-02-15 16:33:00,
2014-02-15 11:38:00,26.1,6.6,29.29,West,279,4.9,6.3,43,0.00,,---,0.00,VWS V13.01,2014-02-15 16:38:00,
2014-02-15 11:39:00,25.9,6.5,29.29,WNW,292,4.0,6.3,43,0.00,,---,0.00,VWS V13.01,2014-02-15 16:39:00,
2014-02-15 11:41:00,25.9,6.5,29.29,West,274,5.4,8.1,43,0.00,,---,0.00,VWS V13.01,2014-02-15 16:41:00,
2014-02-15 11:42:00,25.9,6.5,29.29,WNW,291,5.4,7.6,43,0.00,,---,0.00,VWS V13.01,2014-02-15 16:42:00,
2014-02-15 11:43:00,25.9,6.5,29.29,WNW,293,5.8,8.3,43,0.00,,---,0.00,VWS V13.01,2014-02-15 16:43:00,
2014-02-15 11:44:00,26.1,6.6,29.29,West,275,4.9,8.3,43,0.00,,---,0.00,VWS V13.01,2014-02-15 16:44:00,
2014-02-15 11:45:00,25.9,7.0,29.29,West,269,5.4,7.6,44,0.00,,---,0.00,VWS V13.01,2014-02-15 16:45:00,
2014-02-15 11:49:00,26.1,6.6,29.29,WNW,294,8.1,8.1,43,0.00,,---,0.00,VWS V13.01,2014-02-15 16:49:00,
2014-02-15 11:50:00,26.1,6.6,29.29,West,278,6.3,6.3,43,0.00,,---,0.00,VWS V13.01,2014-02-15 16:50:00,
2014-02-15 11:54:00,26.2,6.8,29.29,WNW,295,6.3,6.3,43,0.00,,---,0.00,VWS V13.01,2014-02-15 16:54:00,
2014-02-15 11:59:00,26.6,7.1,29.29,NW,319,4.0,4.0,43,0.00,,---,0.00,VWS V13.01,2014-02-15 16:59:00,
2014-02-15 12:04:00,27.0,7.5,29.29,WSW,241,8.7,9.2,43,0.00,,---,0.00,VWS V13.01,2014-02-15 17:04:00,
2014-02-15 12:09:00,27.0,6.9,29.29,West,279,11.4,11.4,42,0.00,,---,0.00,VWS V13.01,2014-02-15 17:09:00,
2014-02-15 12:14:00,26.4,7.0,29.29,WNW,287,3.1,3.1,43,0.00,,---,0.00,VWS V13.01,2014-02-15 17:14:00,
2014-02-15 12:19:00,27.0,7.5,29.29,WNW,302,3.1,4.9,43,0.00,,---,0.00,VWS V13.01,2014-02-15 17:19:00,
2014-02-15 12:24:00,27.3,7.3,29.29,WNW,300,5.4,5.4,42,0.00,,---,0.00,VWS V13.01,2014-02-15 17:24:00,
2014-02-15 12:29:00,27.3,7.3,29.29,WNW,302,5.4,5.4,42,0.00,,---,0.00,VWS V13.01,2014-02-15 17:29:00,
2014-02-15 12:34:00,27.5,6.9,29.29,WNW,298,6.3,6.3,41,0.00,,---,0.00,VWS V13.01,2014-02-15 17:34:00,
2014-02-15 12:39:00,27.7,7.1,29.29,ESE,117,2.2,2.2,41,0.00,,---,0.00,VWS V13.01,2014-02-15 17:39:00,
2014-02-15 12:44:00,28.2,7.6,29.26,NW,314,5.4,5.4,41,0.00,,---,0.00,VWS V13.01,2014-02-15 17:44:00,
2014-02-15 12:49:00,29.1,8.4,29.26,WNW,294,8.1,8.7,41,0.00,,---,0.00,VWS V13.01,2014-02-15 17:49:00,
2014-02-15 12:54:00,27.7,7.1,29.26,WNW,301,8.1,8.1,41,0.00,,---,0.00,VWS V13.01,2014-02-15 17:54:00,
2014-02-15 12:59:00,27.9,7.2,29.26,WNW,284,7.2,7.2,41,0.00,,---,0.00,VWS V13.01,2014-02-15 17:59:00,
2014-02-15 13:04:00,26.8,6.8,29.26,WNW,294,7.2,8.1,42,0.00,,---,0.00,VWS V13.01,2014-02-15 18:04:00,
2014-02-15 13:09:00,27.5,6.9,29.26,West,261,3.1,6.3,41,0.00,,---,0.00,VWS V13.01,2014-02-15 18:09:00,
2014-02-15 13:14:00,27.9,7.2,29.26,West,272,4.9,4.9,41,0.00,,---,0.00,VWS V13.01,2014-02-15 18:14:00,
2014-02-15 13:19:00,27.7,6.5,29.26,WNW,301,4.9,5.4,40,0.00,,---,0.00,VWS V13.01,2014-02-15 18:19:00,
2014-02-15 13:24:00,27.1,6.6,29.26,WNW,283,5.4,5.4,41,0.00,,---,0.00,VWS V13.01,2014-02-15 18:24:00,
2014-02-15 13:29:00,27.0,6.4,29.26,WNW,297,8.3,8.3,41,0.00,,---,0.00,VWS V13.01,2014-02-15 18:29:00,
2014-02-15 13:34:00,27.0,6.4,29.26,WNW,294,5.8,6.3,41,0.00,,---,0.00,VWS V13.01,2014-02-15 18:34:00,
2014-02-15 13:39:00,26.6,6.1,29.26,WNW,295,5.4,6.3,41,0.00,,---,0.00,VWS V13.01,2014-02-15 18:39:00,
2014-02-15 13:44:00,27.0,5.9,29.29,NW,321,2.7,5.8,40,0.00,,---,0.00,VWS V13.01,2014-02-15 18:44:00,
2014-02-15 13:49:00,27.0,6.4,29.29,WNW,299,5.8,5.8,41,0.00,,---,0.00,VWS V13.01,2014-02-15 18:49:00,
2014-02-15 13:54:00,26.6,6.1,29.29,WNW,297,6.3,8.1,41,0.00,,---,0.00,VWS V13.01,2014-02-15 18:54:00,
2014-02-15 13:59:00,26.6,6.1,29.29,NW,305,5.4,5.8,41,0.00,,---,0.00,VWS V13.01,2014-02-15 18:59:00,
2014-02-15 14:04:00,26.4,5.9,29.29,WNW,302,6.3,6.3,41,0.00,,---,0.00,VWS V13.01,2014-02-15 19:04:00,
2014-02-15 14:09:00,26.6,6.1,29.29,West,268,5.4,5.4,41,0.00,,---,0.00,VWS V13.01,2014-02-15 19:09:00,
2014-02-15 14:14:00,26.8,6.2,29.29,NW,324,5.4,5.4,41,0.00,,---,0.00,VWS V13.01,2014-02-15 19:14:00,
2014-02-15 14:19:00,26.6,6.1,29.29,WSW,257,4.9,10.5,41,0.00,,---,0.00,VWS V13.01,2014-02-15 19:19:00,
2014-02-15 14:24:00,26.2,5.8,29.29,WNW,292,6.3,8.1,41,0.00,,---,0.00,VWS V13.01,2014-02-15 19:24:00,
2014-02-15 14:29:00,26.4,5.9,29.29,WNW,298,7.6,8.3,41,0.00,,---,0.00,VWS V13.01,2014-02-15 19:29:00,
2014-02-15 14:34:00,26.1,5.6,29.29,WNW,301,6.3,8.7,41,0.00,,---,0.00,VWS V13.01,2014-02-15 19:34:00,
2014-02-15 14:39:00,26.1,5.6,29.29,WNW,291,5.4,8.3,41,0.00,,---,0.00,VWS V13.01,2014-02-15 19:39:00,
2014-02-15 14:44:00,26.6,6.1,29.29,West,280,4.9,6.3,41,0.00,,---,0.00,VWS V13.01,2014-02-15 19:44:00,
2014-02-15 14:49:00,27.5,6.9,29.29,WSW,246,3.1,4.9,41,0.00,,---,0.00,VWS V13.01,2014-02-15 19:49:00,
2014-02-15 14:54:00,26.6,6.1,29.29,WNW,292,10.5,10.5,41,0.00,,---,0.00,VWS V13.01,2014-02-15 19:54:00,
2014-02-15 14:59:00,26.6,6.1,29.29,WNW,288,8.7,8.7,41,0.00,,---,0.00,VWS V13.01,2014-02-15 19:59:00,
2014-02-15 15:04:00,27.0,6.4,29.29,West,265,6.3,8.7,41,0.00,,---,0.00,VWS V13.01,2014-02-15 20:04:00,
2014-02-15 15:09:00,26.6,6.1,29.29,WNW,286,4.0,6.3,41,0.00,,---,0.00,VWS V13.01,2014-02-15 20:09:00,
2014-02-15 15:14:00,26.8,6.2,29.29,NW,306,3.6,5.8,41,0.00,,---,0.00,VWS V13.01,2014-02-15 20:14:00,
2014-02-15 15:19:00,26.8,6.2,29.29,WSW,242,5.4,5.4,41,0.00,,---,0.00,VWS V13.01,2014-02-15 20:19:00,
2014-02-15 15:24:00,26.6,5.6,29.29,WNW,295,5.8,8.7,40,0.00,,---,0.00,VWS V13.01,2014-02-15 20:24:00,
2014-02-15 15:29:00,25.5,5.1,29.32,NW,315,10.1,10.5,41,0.00,,---,0.00,VWS V13.01,2014-02-15 20:29:00,
2014-02-15 15:34:00,25.3,4.9,29.32,West,275,6.3,6.3,41,0.00,,---,0.00,VWS V13.01,2014-02-15 20:34:00,
2014-02-15 15:39:00,25.5,5.6,29.32,WNW,297,5.8,5.8,42,0.00,,---,0.00,VWS V13.01,2014-02-15 20:39:00,
2014-02-15 15:44:00,25.5,5.6,29.32,WSW,245,7.6,7.6,42,0.00,,---,0.00,VWS V13.01,2014-02-15 20:44:00,
2014-02-15 15:49:00,25.3,4.9,29.32,NW,310,13.2,13.2,41,0.00,,---,0.00,VWS V13.01,2014-02-15 20:49:00,
2014-02-15 15:54:00,24.6,4.8,29.32,WNW,302,8.3,9.2,42,0.00,,---,0.00,VWS V13.01,2014-02-15 20:54:00,
2014-02-15 15:58:00,24.4,4.7,29.32,WNW,297,4.9,10.1,42,0.00,,---,0.00,VWS V13.01,2014-02-15 20:58:00,
2014-02-15 16:03:00,24.4,4.7,29.32,WNW,294,7.6,10.5,42,0.00,,---,0.00,VWS V13.01,2014-02-15 21:03:00,
2014-02-15 16:08:00,24.1,4.3,29.32,WNW,287,8.3,8.3,42,0.00,,---,0.00,VWS V13.01,2014-02-15 21:08:00,
2014-02-15 16:13:00,24.1,4.3,29.32,WNW,292,8.3,8.3,42,0.00,,---,0.00,VWS V13.01,2014-02-15 21:13:00,
2014-02-15 16:18:00,24.3,4.5,29.32,WNW,300,7.2,8.7,42,0.00,,---,0.00,VWS V13.01,2014-02-15 21:18:00,
2014-02-15 16:23:00,24.1,4.8,29.32,WNW,301,5.4,5.4,43,0.00,,---,0.00,VWS V13.01,2014-02-15 21:23:00,
2014-02-15 16:28:00,23.7,4.5,29.32,WNW,298,8.1,8.1,43,0.00,,---,0.00,VWS V13.01,2014-02-15 21:28:00,
2014-02-15 16:33:00,23.5,4.3,29.32,West,281,6.3,7.6,43,0.00,,---,0.00,VWS V13.01,2014-02-15 21:33:00,
2014-02-15 16:38:00,23.5,4.3,29.32,WNW,299,10.5,10.5,43,0.00,,---,0.00,VWS V13.01,2014-02-15 21:38:00,
2014-02-15 16:43:00,22.8,4.2,29.32,WNW,299,7.6,8.1,44,0.00,,---,0.00,VWS V13.01,2014-02-15 21:43:00,
2014-02-15 16:48:00,22.6,4.0,29.32,WNW,302,8.1,8.7,44,0.00,,---,0.00,VWS V13.01,2014-02-15 21:48:00,
2014-02-15 16:53:00,22.5,3.9,29.32,WNW,295,8.3,10.1,44,0.00,,---,0.00,VWS V13.01,2014-02-15 21:53:00,
2014-02-15 16:58:00,22.3,3.7,29.32,WNW,302,5.8,7.6,44,0.00,,---,0.00,VWS V13.01,2014-02-15 21:58:00,
2014-02-15 17:03:00,22.1,3.5,29.32,West,269,5.8,5.8,44,0.00,,---,0.00,VWS V13.01,2014-02-15 22:03:00,
2014-02-15 17:08:00,22.1,3.5,29.32,WNW,287,4.0,5.4,44,0.00,,---,0.00,VWS V13.01,2014-02-15 22:08:00,
2014-02-15 17:13:00,21.7,3.2,29.35,NW,310,7.6,7.6,44,0.00,,---,0.00,VWS V13.01,2014-02-15 22:13:00,
2014-02-15 17:18:00,21.6,3.5,29.35,West,281,4.0,8.3,45,0.00,,---,0.00,VWS V13.01,2014-02-15 22:18:00,
2014-02-15 17:23:00,21.2,3.2,29.35,WNW,301,6.3,6.3,45,0.00,,---,0.00,VWS V13.01,2014-02-15 22:23:00,
2014-02-15 17:28:00,21.2,3.7,29.35,WNW,296,4.0,4.9,46,0.00,,---,0.00,VWS V13.01,2014-02-15 22:28:00,
2014-02-15 17:33:00,21.0,3.5,29.35,West,274,4.9,5.4,46,0.00,,---,0.00,VWS V13.01,2014-02-15 22:33:00,
2014-02-15 17:38:00,20.7,3.2,29.35,NW,304,6.3,6.7,46,0.00,,---,0.00,VWS V13.01,2014-02-15 22:38:00,
2014-02-15 17:43:00,20.5,3.5,29.35,WNW,282,4.0,4.0,47,0.00,,---,0.00,VWS V13.01,2014-02-15 22:43:00,
2014-02-15 17:48:00,20.3,3.3,29.35,WNW,288,3.1,3.1,47,0.00,,---,0.00,VWS V13.01,2014-02-15 22:48:00,
2014-02-15 17:53:00,20.3,3.8,29.35,WNW,300,5.8,5.8,48,0.00,,---,0.00,VWS V13.01,2014-02-15 22:53:00,
2014-02-15 17:58:00,19.9,3.9,29.35,West,264,3.6,4.0,49,0.00,,---,0.00,VWS V13.01,2014-02-15 22:58:00,
2014-02-15 18:03:00,19.8,3.7,29.35,WNW,286,4.0,5.4,49,0.00,,---,0.00,VWS V13.01,2014-02-15 23:03:00,
2014-02-15 18:08:00,19.4,3.8,29.35,West,273,3.1,3.1,50,0.00,,---,0.00,VWS V13.01,2014-02-15 23:08:00,
2014-02-15 18:13:00,19.2,4.1,29.35,West,278,4.9,4.9,51,0.00,,---,0.00,VWS V13.01,2014-02-15 23:13:00,
2014-02-15 18:18:00,19.0,3.9,29.35,West,280,3.1,4.9,51,0.00,,---,0.00,VWS V13.01,2014-02-15 23:18:00,
2014-02-15 18:23:00,18.7,3.1,29.35,WNW,285,5.4,5.4,50,0.00,,---,0.00,VWS V13.01,2014-02-15 23:23:00,
2014-02-15 18:28:00,18.7,3.1,29.35,WNW,284,3.1,4.0,50,0.00,,---,0.00,VWS V13.01,2014-02-15 23:28:00,
2014-02-15 18:33:00,18.5,3.4,29.35,WNW,299,5.8,5.8,51,0.00,,---,0.00,VWS V13.01,2014-02-15 23:33:00,
2014-02-15 18:38:00,18.3,3.7,29.35,WNW,292,3.6,4.0,52,0.00,,---,0.00,VWS V13.01,2014-02-15 23:38:00,
2014-02-15 18:43:00,18.1,3.5,29.38,WSW,243,5.4,5.8,52,0.00,,---,0.00,VWS V13.01,2014-02-15 23:43:00,
2014-02-15 18:48:00,17.8,3.2,29.38,WNW,282,5.4,5.4,52,0.00,,---,0.00,VWS V13.01,2014-02-15 23:48:00,
2014-02-15 18:53:00,17.6,3.4,29.38,NW,311,3.6,4.9,53,0.00,,---,0.00,VWS V13.01,2014-02-15 23:53:00,
2014-02-15 18:58:00,17.4,3.2,29.38,West,265,3.6,6.3,53,0.00,,---,0.00,VWS V13.01,2014-02-15 23:58:00,
2014-02-15 19:03:00,17.1,2.9,29.38,West,271,4.0,4.0,53,0.00,,---,0.00,VWS V13.01,2014-02-16 00:03:00,
2014-02-15 19:08:00,16.9,3.1,29.38,West,270,3.6,4.0,54,0.00,,---,0.00,VWS V13.01,2014-02-16 00:08:00,
2014-02-15 19:13:00,16.7,3.0,29.38,WNW,288,4.0,4.0,54,0.00,,---,0.00,VWS V13.01,2014-02-16 00:13:00,
2014-02-15 19:18:00,16.5,2.8,29.38,West,281,3.6,4.0,54,0.00,,---,0.00,VWS V13.01,2014-02-16 00:18:00,
2014-02-15 19:23:00,16.3,3.0,29.38,WNW,297,3.6,3.6,55,0.00,,---,0.00,VWS V13.01,2014-02-16 00:23:00,
2014-02-15 19:28:00,16.2,2.5,29.38,WNW,292,3.6,5.4,54,0.00,,---,0.00,VWS V13.01,2014-02-16 00:28:00,
2014-02-15 19:33:00,16.2,2.5,29.38,WNW,293,4.0,6.3,54,0.00,,---,0.00,VWS V13.01,2014-02-16 00:33:00,
2014-02-15 19:38:00,16.0,2.3,29.38,NW,304,5.4,5.4,54,0.00,,---,0.00,VWS V13.01,2014-02-16 00:38:00,
2014-02-15 19:43:00,15.8,2.5,29.38,West,271,4.0,4.0,55,0.00,,---,0.00,VWS V13.01,2014-02-16 00:43:00,
2014-02-15 19:48:00,15.8,2.5,29.38,West,280,5.8,5.8,55,0.00,,---,0.00,VWS V13.01,2014-02-16 00:48:00,
2014-02-15 19:53:00,15.4,2.2,29.38,WNW,302,5.4,5.4,55,0.00,,---,0.00,VWS V13.01,2014-02-16 00:53:00,
2014-02-15 19:58:00,15.4,2.2,29.38,WNW,289,5.4,7.6,55,0.00,,---,0.00,VWS V13.01,2014-02-16 00:58:00,
2014-02-15 20:03:00,15.3,2.0,29.41,WNW,286,5.4,5.8,55,0.00,,---,0.00,VWS V13.01,2014-02-16 01:03:00,
2014-02-15 20:08:00,15.3,2.0,29.41,NW,307,5.8,5.8,55,0.00,,---,0.00,VWS V13.01,2014-02-16 01:08:00,
2014-02-15 20:13:00,15.1,1.8,29.41,NW,307,7.2,7.2,55,0.00,,---,0.00,VWS V13.01,2014-02-16 01:13:00,
2014-02-15 20:18:00,14.9,1.7,29.41,WNW,303,6.3,6.3,55,0.00,,---,0.00,VWS V13.01,2014-02-16 01:18:00,
2014-02-15 20:23:00,14.5,1.3,29.41,West,278,5.4,5.8,55,0.00,,---,0.00,VWS V13.01,2014-02-16 01:23:00,
2014-02-15 20:28:00,14.4,1.5,29.41,WNW,288,8.1,8.1,56,0.00,,---,0.00,VWS V13.01,2014-02-16 01:28:00,
2014-02-15 20:33:00,14.4,1.2,29.41,NW,305,5.8,5.8,55,0.00,,---,0.00,VWS V13.01,2014-02-16 01:33:00,
2014-02-15 20:38:00,14.2,1.0,29.41,WNW,303,6.3,6.3,55,0.00,,---,0.00,VWS V13.01,2014-02-16 01:38:00,
2014-02-15 20:43:00,13.8,1.0,29.41,WNW,289,3.6,3.6,56,0.00,,---,0.00,VWS V13.01,2014-02-16 01:43:00,
2014-02-15 20:48:00,13.6,0.9,29.41,WNW,302,7.6,8.3,56,0.00,,---,0.00,VWS V13.01,2014-02-16 01:48:00,
2014-02-15 20:53:00,13.3,0.5,29.41,NW,307,3.6,3.6,56,0.00,,---,0.00,VWS V13.01,2014-02-16 01:53:00,
2014-02-15 20:58:00,12.9,0.2,29.41,WNW,284,3.6,6.3,56,0.00,,---,0.00,VWS V13.01,2014-02-16 01:58:00,
2014-02-15 21:03:00,12.7,0.0,29.41,WNW,303,5.4,5.4,56,0.00,,---,0.00,VWS V13.01,2014-02-16 02:03:00,
2014-02-15 21:08:00,12.7,0.0,29.41,WNW,283,6.7,8.3,56,0.00,,---,0.00,VWS V13.01,2014-02-16 02:08:00,
2014-02-15 21:13:00,12.6,-0.2,29.41,West,281,8.7,8.7,56,0.00,,---,0.00,VWS V13.01,2014-02-16 02:13:00,
2014-02-15 21:18:00,12.4,-0.3,29.44,WNW,301,5.8,5.8,56,0.00,,---,0.00,VWS V13.01,2014-02-16 02:18:00,
2014-02-15 21:23:00,12.2,-0.5,29.44,WNW,292,6.3,6.3,56,0.00,,---,0.00,VWS V13.01,2014-02-16 02:23:00,
2014-02-15 21:28:00,12.2,-0.5,29.44,WNW,296,6.3,6.3,56,0.00,,---,0.00,VWS V13.01,2014-02-16 02:28:00,
2014-02-15 21:33:00,12.0,-0.6,29.41,WNW,291,4.0,4.0,56,0.00,,---,0.00,VWS V13.01,2014-02-16 02:33:00,
2014-02-15 21:38:00,11.8,-0.8,29.41,WNW,302,4.9,5.4,56,0.00,,---,0.00,VWS V13.01,2014-02-16 02:38:00,
2014-02-15 21:43:00,11.8,-0.8,29.41,WNW,295,5.8,5.8,56,0.00,,---,0.00,VWS V13.01,2014-02-16 02:43:00,
2014-02-15 21:48:00,11.7,-1.0,29.44,West,260,3.1,6.3,56,0.00,,---,0.00,VWS V13.01,2014-02-16 02:48:00,
2014-02-15 21:53:00,11.5,-1.2,29.44,WNW,301,4.0,6.7,56,0.00,,---,0.00,VWS V13.01,2014-02-16 02:53:00,
2014-02-15 21:58:00,11.3,-1.3,29.44,NW,308,6.3,6.3,56,0.00,,---,0.00,VWS V13.01,2014-02-16 02:58:00,
2014-02-15 22:03:00,11.3,-1.3,29.44,WNW,302,3.6,5.8,56,0.00,,---,0.00,VWS V13.01,2014-02-16 03:03:00,
2014-02-15 22:08:00,11.1,-1.5,29.44,WNW,294,4.9,4.9,56,0.00,,---,0.00,VWS V13.01,2014-02-16 03:08:00,
2014-02-15 22:13:00,10.9,-1.7,29.44,NW,307,6.3,6.3,56,0.00,,---,0.00,VWS V13.01,2014-02-16 03:13:00,
2014-02-15 22:18:00,10.8,-1.8,29.44,West,261,4.0,4.9,56,0.00,,---,0.00,VWS V13.01,2014-02-16 03:18:00,
2014-02-15 22:23:00,10.4,-2.2,29.44,WNW,285,3.1,4.9,56,0.00,,---,0.00,VWS V13.01,2014-02-16 03:23:00,
2014-02-15 22:28:00,10.4,-2.2,29.44,West,271,3.6,5.8,56,0.00,,---,0.00,VWS V13.01,2014-02-16 03:28:00,
2014-02-15 22:33:00,10.2,-2.3,29.44,WNW,292,4.0,4.9,56,0.00,,---,0.00,VWS V13.01,2014-02-16 03:33:00,
2014-02-15 22:38:00,10.2,-2.3,29.44,WNW,286,2.7,6.7,56,0.00,,---,0.00,VWS V13.01,2014-02-16 03:38:00,
2014-02-15 22:43:00,10.0,-2.5,29.44,West,275,5.4,5.4,56,0.00,,---,0.00,VWS V13.01,2014-02-16 03:43:00,
2014-02-15 22:48:00,10.0,-2.5,29.44,WNW,297,5.8,6.7,56,0.00,,---,0.00,VWS V13.01,2014-02-16 03:48:00,
2014-02-15 22:53:00,10.0,-2.5,29.44,WNW,299,2.7,2.7,56,0.00,,---,0.00,VWS V13.01,2014-02-16 03:53:00,
2014-02-15 22:58:00,10.0,-2.5,29.44,West,277,4.0,6.3,56,0.00,,---,0.00,VWS V13.01,2014-02-16 03:58:00,
2014-02-15 23:03:00,10.0,-2.5,29.44,WNW,289,4.0,5.4,56,0.00,,---,0.00,VWS V13.01,2014-02-16 04:03:00,
2014-02-15 23:08:00,10.0,-2.5,29.44,West,279,2.7,3.6,56,0.00,,---,0.00,VWS V13.01,2014-02-16 04:08:00,
2014-02-15 23:13:00,10.0,-2.5,29.44,West,261,4.0,8.1,56,0.00,,---,0.00,VWS V13.01,2014-02-16 04:13:00,
2014-02-15 23:17:00,10.2,-2.3,29.44,West,275,4.0,4.0,56,0.00,,---,0.00,VWS V13.01,2014-02-16 04:17:00,
2014-02-15 23:22:00,10.2,-2.3,29.44,WNW,291,4.0,4.0,56,0.00,,---,0.00,VWS V13.01,2014-02-16 04:22:00,
2014-02-15 23:27:00,10.4,-2.2,29.44,West,280,2.7,4.0,56,0.00,,---,0.00,VWS V13.01,2014-02-16 04:27:00,
2014-02-15 23:32:00,10.4,-2.2,29.44,NW,308,5.8,5.8,56,0.00,,---,0.00,VWS V13.01,2014-02-16 04:32:00,
2014-02-15 23:37:00,10.4,-2.2,29.44,WNW,297,2.7,3.1,56,0.00,,---,0.00,VWS V13.01,2014-02-16 04:37:00,
2014-02-15 23:42:00,10.2,-2.3,29.44,WNW,301,5.4,5.4,56,0.00,,---,0.00,VWS V13.01,2014-02-16 04:42:00,
2014-02-15 23:47:00,10.2,-2.3,29.41,WNW,289,2.7,5.4,56,0.00,,---,0.00,VWS V13.01,2014-02-16 04:47:00,
2014-02-15 23:52:00,10.2,-2.3,29.41,West,260,2.7,2.7,56,0.00,,---,0.00,VWS V13.01,2014-02-16 04:52:00,
2014-02-15 23:57:00,10.0,-2.5,29.41,West,276,4.0,4.5,56,0.00,,---,0.00,VWS V13.01,2014-02-16 04:57:00,